Погода в Менемене

Турция     38°36′20″N   27°04′40″E
темп.,
°C
ветер,
м/с
пор.,
м/с
влажн.,
%
обл.,
%
осадки,
мм/ч
давл.,
гПа
погр.,
м
11 апреля, вс
вс1100:00+5ссв33593 0.0 102534
03:00+4ссв34570 0.0 102339
06:00+3ссв33570 0.0 102334
09:00+7ссв46420 0.0 1024410
12:00+12ссв47310 0.0 10241393
15:00+15с78300 0.0 10221833
18:00+14с78390 0.0 10221682
21:00+8ссв46600 0.0 102388
12 апреля, пн
пн1200:00+6ссв34660 0.0 102440
03:00+5ссв33690 0.0 102435
06:00+5ссв33700 0.0 102325
09:00+9ссв34530 0.0 1023354
12:00+15ссв45390 0.0 10231060
15:00+18с45380 0.0 10211482
18:00+16сз56460 0.0 1020606
21:00+10с22650 0.0 102118
13 апреля, вт
вт1300:00+9св00710 0.0 102011
03:00+9всв11735 0.0 102011
06:00+8в11775 0.0 102012
09:00+13вюв12575 0.0 1020280
12:00+18ююз114217 0.0 1019892
15:00+20з4440100 0.0 1018895
18:00+18зюз4547100 0.0 1017464
21:00+13ююз44655 0.0 101858
14 апреля, ср
ср1400:00+12ююв3470100 0.0 101842
03:00+12юв4670100 0.0 101789
06:00+12ююв5772100 0.0 1016154
09:00+15ююв56655 0.0 1016360
12:00+20ю79410 0.0 10151234
15:00+21ю811412 0.0 10141324
18:00+18ю811460 0.0 10141054
21:00+14ююв57641 0.0 1014110
15 апреля, чт
чт1500:00+13ююв57795 0.0 1015111
03:00+12ююв5683100 0.0 101595
06:00+11юв4682100 0.0 101582
09:00+15ююв56672 0.0 1016396
12:00+20ю67465 0.0 10161797
15:00+21юз674210 0.0 10151760
18:00+19юз6653100 0.0 10151210
21:00+14зюз337735 0.0 101641